Year,Month,Day,Hour,Minute,Value (Times are PST for windspeed in km/hr)
2016,03,11,00,00,2.40
2016,03,11,00,01,0.60
2016,03,11,00,02,0.00
2016,03,11,00,03,1.80
2016,03,11,00,04,1.70
2016,03,11,00,05,2.10
2016,03,11,00,06,2.40
2016,03,11,00,07,1.40
2016,03,11,00,08,1.10
2016,03,11,00,09,0.40
2016,03,11,00,10,2.60
2016,03,11,00,11,1.80
2016,03,11,00,12,2.80
2016,03,11,00,13,2.60
2016,03,11,00,14,2.90
2016,03,11,00,15,2.30
2016,03,11,00,16,0.80
2016,03,11,00,17,3.00
2016,03,11,00,18,4.60
2016,03,11,00,19,3.20
2016,03,11,00,20,1.60
2016,03,11,00,21,3.30
2016,03,11,00,22,3.60
2016,03,11,00,23,2.90
2016,03,11,00,24,2.10
2016,03,11,00,25,1.70
2016,03,11,00,26,0.70
2016,03,11,00,27,2.00
2016,03,11,00,28,4.70
2016,03,11,00,29,2.90
2016,03,11,00,30,3.90
2016,03,11,00,31,3.60
2016,03,11,00,32,2.40
2016,03,11,00,33,2.90
2016,03,11,00,34,2.70
2016,03,11,00,35,3.70
2016,03,11,00,36,5.40
2016,03,11,00,37,3.80
2016,03,11,00,38,3.10
2016,03,11,00,39,2.60
2016,03,11,00,40,3.50
2016,03,11,00,41,7.00
2016,03,11,00,42,4.80
2016,03,11,00,43,3.30
2016,03,11,00,44,4.10
2016,03,11,00,45,7.80
2016,03,11,00,46,8.20
2016,03,11,00,47,6.50
2016,03,11,00,48,8.80
2016,03,11,00,49,6.60
2016,03,11,00,50,5.20
2016,03,11,00,51,5.40
2016,03,11,00,52,4.60
2016,03,11,00,53,9.20
2016,03,11,00,54,5.10
2016,03,11,00,55,3.70
2016,03,11,00,56,4.60
2016,03,11,00,57,4.90
2016,03,11,00,58,2.70
2016,03,11,00,59,2.70
2016,03,11,01,00,2.20
2016,03,11,01,01,8.50
2016,03,11,01,02,3.30
2016,03,11,01,03,5.80
2016,03,11,01,04,9.10
2016,03,11,01,05,4.90
2016,03,11,01,06,5.40
2016,03,11,01,07,2.70
2016,03,11,01,08,4.90
2016,03,11,01,09,3.50
2016,03,11,01,10,5.80
2016,03,11,01,11,14.10
2016,03,11,01,12,3.00
2016,03,11,01,13,1.60
2016,03,11,01,14,5.10
2016,03,11,01,15,5.80
2016,03,11,01,16,3.80
2016,03,11,01,17,1.80
2016,03,11,01,18,2.70
2016,03,11,01,19,4.50
2016,03,11,01,20,11.40
2016,03,11,01,21,8.20
2016,03,11,01,22,5.90
2016,03,11,01,23,11.30
2016,03,11,01,24,5.70
2016,03,11,01,25,11.80
2016,03,11,01,26,8.40
2016,03,11,01,27,5.80
2016,03,11,01,28,8.80
2016,03,11,01,29,6.60
2016,03,11,01,30,3.20
2016,03,11,01,31,3.20
2016,03,11,01,32,3.20
2016,03,11,01,33,3.20
2016,03,11,01,34,4.70
2016,03,11,01,35,2.70
2016,03,11,01,36,6.10
2016,03,11,01,37,8.40
2016,03,11,01,38,7.10
2016,03,11,01,39,4.60
2016,03,11,01,40,3.30
2016,03,11,01,41,8.00
2016,03,11,01,42,2.50
2016,03,11,01,43,6.00
2016,03,11,01,44,4.30
2016,03,11,01,45,5.10
2016,03,11,01,46,3.20
2016,03,11,01,47,3.90
2016,03,11,01,48,5.80
2016,03,11,01,49,3.30
2016,03,11,01,50,5.70
2016,03,11,01,51,3.30
2016,03,11,01,52,4.70
2016,03,11,01,53,6.80
2016,03,11,01,54,8.00
2016,03,11,01,55,3.00
2016,03,11,01,56,6.70
2016,03,11,01,57,5.90
2016,03,11,01,58,5.20
2016,03,11,01,59,7.80
2016,03,11,02,00,7.80
2016,03,11,02,01,12.50
2016,03,11,02,02,5.10
2016,03,11,02,03,8.40
2016,03,11,02,04,6.20
2016,03,11,02,05,7.30
2016,03,11,02,06,10.40
2016,03,11,02,07,8.60
2016,03,11,02,08,5.40
2016,03,11,02,09,10.00
2016,03,11,02,10,6.00
2016,03,11,02,11,5.30
2016,03,11,02,12,3.60
2016,03,11,02,13,4.30
2016,03,11,02,14,8.20
2016,03,11,02,15,9.40
2016,03,11,02,16,5.20
2016,03,11,02,17,5.80
2016,03,11,02,18,10.30
2016,03,11,02,19,11.20
2016,03,11,02,20,5.10
2016,03,11,02,21,3.50
2016,03,11,02,22,4.80
2016,03,11,02,23,2.70
2016,03,11,02,24,11.40
2016,03,11,02,25,6.50
2016,03,11,02,26,10.00
2016,03,11,02,27,2.80
2016,03,11,02,28,18.50
2016,03,11,02,29,9.10
2016,03,11,02,30,8.40
2016,03,11,02,31,9.30
2016,03,11,02,32,5.90
2016,03,11,02,33,2.80
2016,03,11,02,34,6.40
2016,03,11,02,35,6.90
2016,03,11,02,36,13.70
2016,03,11,02,37,10.40
2016,03,11,02,38,4.50
2016,03,11,02,39,5.80
2016,03,11,02,40,3.90
2016,03,11,02,41,12.20
2016,03,11,02,42,7.20
2016,03,11,02,43,5.50
2016,03,11,02,44,3.90
2016,03,11,02,45,7.80
2016,03,11,02,46,5.40
2016,03,11,02,47,5.70
2016,03,11,02,48,7.00
2016,03,11,02,49,8.00
2016,03,11,02,50,4.80
2016,03,11,02,51,2.40
2016,03,11,02,52,6.30
2016,03,11,02,53,4.60
2016,03,11,02,54,5.60
2016,03,11,02,55,3.60
2016,03,11,02,56,3.60
2016,03,11,02,57,3.70
2016,03,11,02,58,2.00
2016,03,11,02,59,7.00
2016,03,11,03,00,4.80
2016,03,11,03,01,3.50
2016,03,11,03,02,2.40
2016,03,11,03,03,2.10
2016,03,11,03,04,2.70
2016,03,11,03,05,8.30
2016,03,11,03,06,4.70
2016,03,11,03,07,4.90
2016,03,11,03,08,1.60
2016,03,11,03,09,2.60
2016,03,11,03,10,5.20
2016,03,11,03,11,4.00
2016,03,11,03,12,4.30
2016,03,11,03,13,4.10
2016,03,11,03,14,4.50
2016,03,11,03,15,2.90
2016,03,11,03,16,2.10
2016,03,11,03,17,1.90
2016,03,11,03,18,1.50
2016,03,11,03,19,2.80
2016,03,11,03,20,3.10
2016,03,11,03,21,5.70
2016,03,11,03,22,2.60
2016,03,11,03,23,1.30
2016,03,11,03,24,3.70
2016,03,11,03,25,2.90
2016,03,11,03,26,3.70
2016,03,11,03,27,5.10
2016,03,11,03,28,6.00
2016,03,11,03,29,5.90
2016,03,11,03,30,5.40
2016,03,11,03,31,4.10
2016,03,11,03,32,2.40
2016,03,11,03,33,2.80
2016,03,11,03,34,6.30
2016,03,11,03,35,3.00
2016,03,11,03,36,0.50
2016,03,11,03,37,0.80
2016,03,11,03,38,0.90
2016,03,11,03,39,1.00
2016,03,11,03,40,2.50
2016,03,11,03,41,1.30
2016,03,11,03,42,2.50
2016,03,11,03,43,1.50
2016,03,11,03,44,0.80
2016,03,11,03,45,1.70
2016,03,11,03,46,0.10
2016,03,11,03,47,0.30
2016,03,11,03,48,0.90
2016,03,11,03,49,0.10
2016,03,11,03,50,0.00
2016,03,11,03,51,2.00
2016,03,11,03,52,4.80
2016,03,11,03,53,2.30
2016,03,11,03,54,2.30
2016,03,11,03,55,1.90
2016,03,11,03,56,2.60
2016,03,11,03,57,3.00
2016,03,11,03,58,2.90
2016,03,11,03,59,3.10
2016,03,11,04,00,2.20
2016,03,11,04,01,1.10
2016,03,11,04,02,2.20
2016,03,11,04,03,2.40
2016,03,11,04,04,3.60
2016,03,11,04,05,1.30
2016,03,11,04,06,2.00
2016,03,11,04,07,2.40
2016,03,11,04,08,1.60
2016,03,11,04,09,2.20
2016,03,11,04,10,2.60
2016,03,11,04,11,1.30
2016,03,11,04,12,0.60
2016,03,11,04,13,0.10
2016,03,11,04,14,1.60
2016,03,11,04,15,1.70
2016,03,11,04,16,0.50
2016,03,11,04,17,3.00
2016,03,11,04,18,3.00
2016,03,11,04,19,3.50
2016,03,11,04,20,2.00
2016,03,11,04,21,0.10
2016,03,11,04,22,1.90
2016,03,11,04,23,0.60
2016,03,11,04,24,3.10
2016,03,11,04,25,2.30
2016,03,11,04,26,1.80
2016,03,11,04,27,2.40
2016,03,11,04,28,2.00
2016,03,11,04,29,2.10
2016,03,11,04,30,2.30
2016,03,11,04,31,1.40
2016,03,11,04,32,1.00
2016,03,11,04,33,1.10
2016,03,11,04,34,0.90
2016,03,11,04,35,1.60
2016,03,11,04,36,3.60
2016,03,11,04,37,1.90
2016,03,11,04,38,2.00
2016,03,11,04,39,0.50
2016,03,11,04,40,1.90
2016,03,11,04,41,4.90
2016,03,11,04,42,1.60
2016,03,11,04,43,0.80
2016,03,11,04,44,3.30
2016,03,11,04,45,0.70
2016,03,11,04,46,0.00
2016,03,11,04,47,1.50
2016,03,11,04,48,0.20
2016,03,11,04,49,0.00
2016,03,11,04,50,1.40
2016,03,11,04,51,2.00
2016,03,11,04,52,1.30
2016,03,11,04,53,2.00
2016,03,11,04,54,0.10
2016,03,11,04,55,0.00
2016,03,11,04,56,0.00
2016,03,11,04,57,0.00
2016,03,11,04,58,0.00
2016,03,11,04,59,1.60
2016,03,11,05,00,0.40
2016,03,11,05,01,0.70
2016,03,11,05,02,1.60
2016,03,11,05,03,1.90
2016,03,11,05,04,2.90
2016,03,11,05,05,2.00
2016,03,11,05,06,1.20
2016,03,11,05,07,0.70
2016,03,11,05,08,0.60
2016,03,11,05,09,0.30
2016,03,11,05,10,2.40
2016,03,11,05,11,0.10
2016,03,11,05,12,0.90
2016,03,11,05,13,1.50
2016,03,11,05,14,2.80
2016,03,11,05,15,2.60
2016,03,11,05,16,0.80
2016,03,11,05,17,0.30
2016,03,11,05,18,0.00
2016,03,11,05,19,0.00
2016,03,11,05,20,0.80
2016,03,11,05,21,0.10
2016,03,11,05,22,0.00
2016,03,11,05,23,0.50
2016,03,11,05,24,0.50
2016,03,11,05,25,0.00
2016,03,11,05,26,0.00
2016,03,11,05,27,0.10
2016,03,11,05,28,0.50
2016,03,11,05,29,1.10
2016,03,11,05,30,1.10
2016,03,11,05,31,0.10
2016,03,11,05,32,0.00
2016,03,11,05,33,0.00
2016,03,11,05,34,0.00
2016,03,11,05,35,0.10
2016,03,11,05,36,0.00
2016,03,11,05,37,0.00
2016,03,11,05,38,0.00
2016,03,11,05,39,0.00
2016,03,11,05,40,0.00
2016,03,11,05,41,0.00
2016,03,11,05,42,0.00
2016,03,11,05,43,0.00
2016,03,11,05,44,0.70
2016,03,11,05,45,1.10
2016,03,11,05,46,1.70
2016,03,11,05,47,2.30
2016,03,11,05,48,2.50
2016,03,11,05,49,2.00
2016,03,11,05,50,3.90
2016,03,11,05,51,5.10
2016,03,11,05,52,2.70
2016,03,11,05,53,2.30
2016,03,11,05,54,2.70
2016,03,11,05,55,0.80
2016,03,11,05,56,0.50
2016,03,11,05,57,0.20
2016,03,11,05,58,0.20
2016,03,11,05,59,1.70
2016,03,11,06,00,1.90
2016,03,11,06,01,0.80
2016,03,11,06,02,0.00
2016,03,11,06,03,0.00
2016,03,11,06,04,0.00
2016,03,11,06,05,1.10
2016,03,11,06,06,0.40
2016,03,11,06,07,0.00
2016,03,11,06,08,0.50
2016,03,11,06,09,1.30
2016,03,11,06,10,0.70
2016,03,11,06,11,0.00
2016,03,11,06,12,0.10
2016,03,11,06,13,0.00
2016,03,11,06,14,0.00
2016,03,11,06,15,0.00
2016,03,11,06,16,0.00
2016,03,11,06,17,0.00
2016,03,11,06,18,0.00
2016,03,11,06,19,0.50
2016,03,11,06,20,0.00
2016,03,11,06,21,0.00
2016,03,11,06,22,0.00
2016,03,11,06,23,0.00
2016,03,11,06,24,0.00
2016,03,11,06,25,0.00
2016,03,11,06,26,0.00
2016,03,11,06,27,0.00
2016,03,11,06,28,0.00
2016,03,11,06,29,0.00
2016,03,11,06,30,0.00
2016,03,11,06,31,1.00
2016,03,11,06,32,0.30
2016,03,11,06,33,0.20
2016,03,11,06,34,1.10
2016,03,11,06,35,0.80
2016,03,11,06,36,0.00
2016,03,11,06,37,0.00
2016,03,11,06,38,0.20
2016,03,11,06,39,0.10
2016,03,11,06,40,0.00
2016,03,11,06,41,0.00
2016,03,11,06,42,0.00
2016,03,11,06,43,0.50
2016,03,11,06,44,0.00
2016,03,11,06,45,0.10
2016,03,11,06,46,0.00
2016,03,11,06,47,0.00
2016,03,11,06,48,0.00
2016,03,11,06,49,0.00
2016,03,11,06,50,0.00
2016,03,11,06,51,0.00
2016,03,11,06,52,0.00
2016,03,11,06,53,0.00
2016,03,11,06,54,0.00
2016,03,11,06,55,0.00
2016,03,11,06,56,0.00
2016,03,11,06,57,0.00
2016,03,11,06,58,0.00
2016,03,11,06,59,0.00
2016,03,11,07,00,0.00
2016,03,11,07,01,0.00
2016,03,11,07,02,1.60
2016,03,11,07,03,0.50
2016,03,11,07,04,0.70
2016,03,11,07,05,0.70
2016,03,11,07,06,0.20
2016,03,11,07,07,0.50
2016,03,11,07,08,1.30
2016,03,11,07,09,1.40
2016,03,11,07,10,2.70
2016,03,11,07,11,0.80
2016,03,11,07,12,0.00
2016,03,11,07,13,0.00
2016,03,11,07,14,0.00
2016,03,11,07,15,0.20
2016,03,11,07,16,0.40
2016,03,11,07,17,1.90
2016,03,11,07,18,1.40
2016,03,11,07,19,0.10
2016,03,11,07,20,0.00
2016,03,11,07,21,0.00
2016,03,11,07,22,0.10
2016,03,11,07,23,0.00
2016,03,11,07,24,0.00
2016,03,11,07,25,0.00
2016,03,11,07,26,0.40
2016,03,11,07,27,0.10
2016,03,11,07,28,0.60
2016,03,11,07,29,0.10
2016,03,11,07,30,0.30
2016,03,11,07,31,0.20
2016,03,11,07,32,0.80
2016,03,11,07,33,0.00
2016,03,11,07,34,0.00
2016,03,11,07,35,0.00
2016,03,11,07,36,0.00
2016,03,11,07,37,0.00
2016,03,11,07,38,0.00
2016,03,11,07,39,0.00
2016,03,11,07,40,0.00
2016,03,11,07,41,0.00
2016,03,11,07,42,0.00
2016,03,11,07,43,0.50
2016,03,11,07,44,0.00
2016,03,11,07,45,0.00
2016,03,11,07,46,0.00
2016,03,11,07,47,0.70
2016,03,11,07,48,0.80
2016,03,11,07,49,0.00
2016,03,11,07,50,0.10
2016,03,11,07,51,0.00
2016,03,11,07,52,0.00
2016,03,11,07,53,0.00
2016,03,11,07,54,0.50
2016,03,11,07,55,0.50
2016,03,11,07,56,1.30
2016,03,11,07,57,0.10
2016,03,11,07,58,0.80
2016,03,11,07,59,1.00
2016,03,11,08,00,1.00
2016,03,11,08,01,0.60
2016,03,11,08,02,1.10
2016,03,11,08,03,1.60
2016,03,11,08,04,0.70
2016,03,11,08,05,1.00
2016,03,11,08,06,1.40
2016,03,11,08,07,0.80
2016,03,11,08,08,1.10
2016,03,11,08,09,0.60
2016,03,11,08,10,0.00
2016,03,11,08,11,0.00
2016,03,11,08,12,0.50
2016,03,11,08,13,2.00
2016,03,11,08,14,0.80
2016,03,11,08,15,1.20
2016,03,11,08,16,0.50
2016,03,11,08,17,0.00
2016,03,11,08,18,0.00
2016,03,11,08,19,0.00
2016,03,11,08,20,0.00
2016,03,11,08,21,0.00
2016,03,11,08,22,0.00
2016,03,11,08,23,0.00
2016,03,11,08,24,0.00
2016,03,11,08,25,0.00
2016,03,11,08,26,0.00
2016,03,11,08,27,0.00
2016,03,11,08,28,0.00
2016,03,11,08,29,0.00
2016,03,11,08,30,0.00
2016,03,11,08,31,0.00
2016,03,11,08,32,0.00
2016,03,11,08,33,0.00
2016,03,11,08,34,0.00
2016,03,11,08,35,0.00
2016,03,11,08,36,0.00
2016,03,11,08,37,0.00
2016,03,11,08,38,0.00
2016,03,11,08,39,0.00
2016,03,11,08,40,0.00
2016,03,11,08,41,0.00
2016,03,11,08,42,0.00
2016,03,11,08,43,0.00
2016,03,11,08,44,0.00
2016,03,11,08,45,0.00
2016,03,11,08,46,0.00
2016,03,11,08,47,0.00
2016,03,11,08,48,0.00
2016,03,11,08,49,0.00
2016,03,11,08,50,0.00
2016,03,11,08,51,0.00
2016,03,11,08,52,0.00
2016,03,11,08,53,0.00
2016,03,11,08,54,0.00
2016,03,11,08,55,0.00
2016,03,11,08,56,0.00
2016,03,11,08,57,0.00
2016,03,11,08,58,0.00
2016,03,11,08,59,0.00
2016,03,11,09,00,0.00
2016,03,11,09,01,0.00
2016,03,11,09,02,0.00
2016,03,11,09,03,0.00
2016,03,11,09,04,0.00
2016,03,11,09,05,0.00
2016,03,11,09,06,0.00
2016,03,11,09,07,0.00
2016,03,11,09,08,0.10
2016,03,11,09,09,2.40
2016,03,11,09,10,2.30
2016,03,11,09,11,0.00
2016,03,11,09,12,1.10
2016,03,11,09,13,0.10
2016,03,11,09,14,1.80
2016,03,11,09,15,2.60
2016,03,11,09,16,1.10
2016,03,11,09,17,0.10
2016,03,11,09,18,0.00
2016,03,11,09,19,2.20
2016,03,11,09,20,2.00
2016,03,11,09,21,2.50
2016,03,11,09,22,0.50
2016,03,11,09,23,0.00
2016,03,11,09,24,1.40
2016,03,11,09,25,1.30
2016,03,11,09,26,0.00
2016,03,11,09,27,0.00
2016,03,11,09,28,0.00
2016,03,11,09,29,0.80
2016,03,11,09,30,2.40
2016,03,11,09,31,0.60
2016,03,11,09,32,0.00
2016,03,11,09,33,0.00
2016,03,11,09,34,1.30
2016,03,11,09,35,0.80
2016,03,11,09,36,1.30
2016,03,11,09,37,0.80
2016,03,11,09,38,1.50
2016,03,11,09,39,0.00
2016,03,11,09,40,0.00
2016,03,11,09,41,0.00
2016,03,11,09,42,0.40
2016,03,11,09,43,0.60
2016,03,11,09,44,0.50
2016,03,11,09,45,0.10
2016,03,11,09,46,0.10
2016,03,11,09,47,0.50
2016,03,11,09,48,0.00
2016,03,11,09,49,0.00
2016,03,11,09,50,0.00
2016,03,11,09,51,1.70
2016,03,11,09,52,0.80
2016,03,11,09,53,2.10
2016,03,11,09,54,2.30
2016,03,11,09,55,2.20
2016,03,11,09,56,1.50
2016,03,11,09,57,0.40
2016,03,11,09,58,0.20
2016,03,11,09,59,0.70
2016,03,11,10,00,0.80
2016,03,11,10,01,0.80
2016,03,11,10,02,0.80
2016,03,11,10,03,1.30
2016,03,11,10,04,2.70
2016,03,11,10,05,1.40
2016,03,11,10,06,0.50
2016,03,11,10,07,2.10
2016,03,11,10,08,2.10
2016,03,11,10,09,0.50
2016,03,11,10,10,0.80
2016,03,11,10,11,0.20
2016,03,11,10,12,0.80
2016,03,11,10,13,1.10
2016,03,11,10,14,4.60
2016,03,11,10,15,3.20
2016,03,11,10,16,5.70
2016,03,11,10,17,3.30
2016,03,11,10,18,6.00
2016,03,11,10,19,1.70
2016,03,11,10,20,1.30
2016,03,11,10,21,3.20
2016,03,11,10,22,2.70
2016,03,11,10,23,4.70
2016,03,11,10,24,5.70
2016,03,11,10,25,2.30
2016,03,11,10,26,6.60
2016,03,11,10,27,3.70
2016,03,11,10,28,2.30
2016,03,11,10,29,3.30
2016,03,11,10,30,3.20
2016,03,11,10,31,1.10
2016,03,11,10,32,1.10
2016,03,11,10,33,1.00
2016,03,11,10,34,0.20
2016,03,11,10,35,1.00
2016,03,11,10,36,1.10
2016,03,11,10,37,2.00
2016,03,11,10,38,7.60
2016,03,11,10,39,5.80
2016,03,11,10,40,1.70
2016,03,11,10,41,3.20
2016,03,11,10,42,2.10
2016,03,11,10,43,3.80
2016,03,11,10,44,1.20
2016,03,11,10,45,4.90
2016,03,11,10,46,1.10
2016,03,11,10,47,2.30
2016,03,11,10,48,0.60
2016,03,11,10,49,1.00
2016,03,11,10,50,2.90
2016,03,11,10,51,4.00
2016,03,11,10,52,1.90
2016,03,11,10,53,5.10
2016,03,11,10,54,2.00
2016,03,11,10,55,0.40
2016,03,11,10,56,1.40
2016,03,11,10,57,0.20
2016,03,11,10,58,0.20
2016,03,11,10,59,1.50
2016,03,11,11,00,1.80
2016,03,11,11,01,0.50
2016,03,11,11,02,0.20
2016,03,11,11,03,0.20
2016,03,11,11,04,0.00
2016,03,11,11,05,0.00
2016,03,11,11,06,1.40
2016,03,11,11,07,1.20
2016,03,11,11,08,1.40
2016,03,11,11,09,1.40
2016,03,11,11,10,0.50
2016,03,11,11,11,0.80
2016,03,11,11,12,1.10
2016,03,11,11,13,1.40
2016,03,11,11,14,1.40
2016,03,11,11,15,2.50
2016,03,11,11,16,2.90
2016,03,11,11,17,2.60
2016,03,11,11,18,1.70
2016,03,11,11,19,2.10
2016,03,11,11,20,5.40
2016,03,11,11,21,2.10
2016,03,11,11,22,1.40
2016,03,11,11,23,5.70
2016,03,11,11,24,2.90
2016,03,11,11,25,1.60
2016,03,11,11,26,5.70
2016,03,11,11,27,7.50
2016,03,11,11,28,9.50
2016,03,11,11,29,2.60
2016,03,11,11,30,5.30
2016,03,11,11,31,5.30
2016,03,11,11,32,3.00
2016,03,11,11,33,6.10
2016,03,11,11,34,3.90
2016,03,11,11,35,5.40
2016,03,11,11,36,4.20
2016,03,11,11,37,6.20
2016,03,11,11,38,5.40
2016,03,11,11,39,4.80
2016,03,11,11,40,2.20
2016,03,11,11,41,1.90
2016,03,11,11,42,6.40
2016,03,11,11,43,2.90
2016,03,11,11,44,0.50
2016,03,11,11,45,1.60
2016,03,11,11,46,0.50
2016,03,11,11,47,1.20
2016,03,11,11,48,0.80
2016,03,11,11,49,1.40
2016,03,11,11,50,5.80
2016,03,11,11,51,5.00
2016,03,11,11,52,0.50
2016,03,11,11,53,3.70
2016,03,11,11,54,3.80
2016,03,11,11,55,5.10
2016,03,11,11,56,1.40
2016,03,11,11,57,3.50
2016,03,11,11,58,1.20
2016,03,11,11,59,1.80
2016,03,11,12,00,5.50
2016,03,11,12,01,3.50
2016,03,11,12,02,3.50
2016,03,11,12,03,1.60
2016,03,11,12,04,0.80
2016,03,11,12,05,6.30
2016,03,11,12,06,2.60
2016,03,11,12,07,3.10
2016,03,11,12,08,3.60
2016,03,11,12,09,3.00
2016,03,11,12,10,1.30
2016,03,11,12,11,3.50
2016,03,11,12,12,1.60
2016,03,11,12,13,3.00
2016,03,11,12,14,5.50
2016,03,11,12,15,2.60
2016,03,11,12,16,4.40
2016,03,11,12,17,3.60
2016,03,11,12,18,2.70
2016,03,11,12,19,3.50
2016,03,11,12,20,2.60
2016,03,11,12,21,1.10
2016,03,11,12,22,3.60
2016,03,11,12,23,5.90
2016,03,11,12,24,5.50
2016,03,11,12,25,3.60
2016,03,11,12,26,3.00
2016,03,11,12,27,3.80
2016,03,11,12,28,0.30
2016,03,11,12,29,0.70
2016,03,11,12,30,3.10
2016,03,11,12,31,4.40
2016,03,11,12,32,2.10
2016,03,11,12,33,4.70
2016,03,11,12,34,2.60
2016,03,11,12,35,3.80
2016,03,11,12,36,5.10
2016,03,11,12,37,3.40
2016,03,11,12,38,1.30
2016,03,11,12,39,4.40
2016,03,11,12,40,9.00
2016,03,11,12,41,3.30
2016,03,11,12,42,2.60
2016,03,11,12,43,3.50
2016,03,11,12,44,3.40
2016,03,11,12,45,4.40
2016,03,11,12,46,8.10
2016,03,11,12,47,4.80
2016,03,11,12,48,2.50
2016,03,11,12,49,0.80
2016,03,11,12,50,1.80
2016,03,11,12,51,2.60
2016,03,11,12,52,2.60
2016,03,11,12,53,6.20
2016,03,11,12,54,4.40
2016,03,11,12,55,6.30
2016,03,11,12,56,5.70
2016,03,11,12,57,3.10
2016,03,11,12,58,6.00
2016,03,11,12,59,2.80
2016,03,11,13,00,2.40
2016,03,11,13,01,3.00
2016,03,11,13,02,3.10
2016,03,11,13,03,5.90
2016,03,11,13,04,4.40
2016,03,11,13,05,2.90
2016,03,11,13,06,2.30
2016,03,11,13,07,1.70
2016,03,11,13,08,3.50
2016,03,11,13,09,2.90
2016,03,11,13,10,3.00
2016,03,11,13,11,2.00
2016,03,11,13,12,2.30
2016,03,11,13,13,3.70
2016,03,11,13,14,2.10
2016,03,11,13,15,3.90
2016,03,11,13,16,4.30
2016,03,11,13,17,1.10
2016,03,11,13,18,2.70
2016,03,11,13,19,5.10
2016,03,11,13,20,3.70
2016,03,11,13,21,5.00
2016,03,11,13,22,6.90
2016,03,11,13,23,6.70
2016,03,11,13,24,7.30
2016,03,11,13,25,2.70
2016,03,11,13,26,5.00
2016,03,11,13,27,6.80
2016,03,11,13,28,5.50
2016,03,11,13,29,6.50
2016,03,11,13,30,3.10
2016,03,11,13,31,2.90
2016,03,11,13,32,2.30
2016,03,11,13,33,4.50
2016,03,11,13,34,1.20
2016,03,11,13,35,1.00
2016,03,11,13,36,3.80
2016,03,11,13,37,1.40
2016,03,11,13,38,0.20
2016,03,11,13,39,0.80
2016,03,11,13,40,2.60
2016,03,11,13,41,1.40
2016,03,11,13,42,0.00
2016,03,11,13,43,3.00
2016,03,11,13,44,4.50
2016,03,11,13,45,2.00
2016,03,11,13,46,0.90
2016,03,11,13,47,1.70
2016,03,11,13,48,2.20
2016,03,11,13,49,0.50
2016,03,11,13,50,0.20
2016,03,11,13,51,2.80
2016,03,11,13,52,0.80
2016,03,11,13,53,2.90
2016,03,11,13,54,2.30
2016,03,11,13,55,1.90
2016,03,11,13,56,6.10
2016,03,11,13,57,3.90
2016,03,11,13,58,2.20
2016,03,11,13,59,5.10
2016,03,11,14,00,3.00
2016,03,11,14,01,4.30
2016,03,11,14,02,3.10
2016,03,11,14,03,2.80
2016,03,11,14,04,2.70
2016,03,11,14,05,6.00
2016,03,11,14,06,2.60
2016,03,11,14,07,2.10
2016,03,11,14,08,3.10
2016,03,11,14,09,2.80
2016,03,11,14,10,4.40
2016,03,11,14,11,3.60
2016,03,11,14,12,5.80
2016,03,11,14,13,4.90
2016,03,11,14,14,3.30
2016,03,11,14,15,2.90
2016,03,11,14,16,2.90
2016,03,11,14,17,0.80
2016,03,11,14,18,0.10
2016,03,11,14,19,0.00
2016,03,11,14,20,1.00
2016,03,11,14,21,0.10
2016,03,11,14,22,1.00
2016,03,11,14,23,1.70
2016,03,11,14,24,1.40
2016,03,11,14,25,0.30
2016,03,11,14,26,0.30
2016,03,11,14,27,0.00
2016,03,11,14,28,0.00
2016,03,11,14,29,0.20
2016,03,11,14,30,2.90
2016,03,11,14,31,3.50
2016,03,11,14,32,1.50
2016,03,11,14,33,1.70
2016,03,11,14,34,1.20
2016,03,11,14,35,0.20
2016,03,11,14,36,2.10
2016,03,11,14,37,0.20
2016,03,11,14,38,0.10
2016,03,11,14,39,2.10
2016,03,11,14,40,2.00
2016,03,11,14,41,2.50
2016,03,11,14,42,1.10
2016,03,11,14,43,0.30
2016,03,11,14,44,0.20
2016,03,11,14,45,0.30
2016,03,11,14,46,2.10
2016,03,11,14,47,0.60
2016,03,11,14,48,1.50
2016,03,11,14,49,0.20
2016,03,11,14,50,1.30
2016,03,11,14,51,1.00
2016,03,11,14,52,0.20
2016,03,11,14,53,0.20
2016,03,11,14,54,0.10
2016,03,11,14,55,1.00
2016,03,11,14,56,1.20
2016,03,11,14,57,1.40
2016,03,11,14,58,1.70
2016,03,11,14,59,0.40
2016,03,11,15,00,0.40
2016,03,11,15,01,0.30
2016,03,11,15,02,0.80
2016,03,11,15,03,0.60
2016,03,11,15,04,1.80
2016,03,11,15,05,0.40
2016,03,11,15,06,2.30
2016,03,11,15,07,3.10
2016,03,11,15,08,4.10
2016,03,11,15,09,2.40
2016,03,11,15,10,3.90
2016,03,11,15,11,5.70
2016,03,11,15,12,2.80
2016,03,11,15,13,3.80
2016,03,11,15,14,3.40
2016,03,11,15,15,0.50
2016,03,11,15,16,0.30
2016,03,11,15,17,1.00
2016,03,11,15,18,1.50
2016,03,11,15,19,1.20
2016,03,11,15,20,1.70
2016,03,11,15,21,10.60
2016,03,11,15,22,8.10
2016,03,11,15,23,10.80
2016,03,11,15,24,5.60
2016,03,11,15,25,3.20
2016,03,11,15,26,5.10
2016,03,11,15,27,9.90
2016,03,11,15,28,4.30
2016,03,11,15,29,1.40
2016,03,11,15,30,6.00
2016,03,11,15,31,2.30
2016,03,11,15,32,1.90
2016,03,11,15,33,2.60
2016,03,11,15,34,2.10
2016,03,11,15,35,0.70
2016,03,11,15,36,1.20
2016,03,11,15,37,1.80
2016,03,11,15,38,0.80
2016,03,11,15,39,1.70
2016,03,11,15,40,2.30
2016,03,11,15,41,1.40
2016,03,11,15,42,2.20
2016,03,11,15,43,3.50
2016,03,11,15,44,4.80
2016,03,11,15,45,2.90
2016,03,11,15,46,1.20
2016,03,11,15,47,2.10
2016,03,11,15,48,1.40
2016,03,11,15,49,3.90
2016,03,11,15,50,4.40
2016,03,11,15,51,5.80
2016,03,11,15,52,3.80
2016,03,11,15,53,3.20
2016,03,11,15,54,2.40
2016,03,11,15,55,5.20
2016,03,11,15,56,5.90
2016,03,11,15,57,4.40
2016,03,11,15,58,2.30
2016,03,11,15,59,3.50
2016,03,11,16,00,2.40
2016,03,11,16,01,3.30
2016,03,11,16,02,2.30
2016,03,11,16,03,0.90
2016,03,11,16,04,0.90
2016,03,11,16,05,1.70
2016,03,11,16,06,5.40
2016,03,11,16,07,2.40
2016,03,11,16,08,7.30
2016,03,11,16,09,4.10
2016,03,11,16,10,5.70
2016,03,11,16,11,1.90
2016,03,11,16,12,1.80
2016,03,11,16,13,3.80
2016,03,11,16,14,3.10
2016,03,11,16,15,3.20
2016,03,11,16,16,6.10
2016,03,11,16,17,4.40
2016,03,11,16,18,2.00
2016,03,11,16,19,2.00
2016,03,11,16,20,1.70
2016,03,11,16,21,1.70
2016,03,11,16,22,2.10
2016,03,11,16,23,2.70
2016,03,11,16,24,3.50
2016,03,11,16,25,1.40
2016,03,11,16,26,0.50
2016,03,11,16,27,2.20
2016,03,11,16,28,4.50
2016,03,11,16,29,2.40
2016,03,11,16,30,2.00
2016,03,11,16,31,2.40
2016,03,11,16,32,3.60
2016,03,11,16,33,2.60
2016,03,11,16,34,1.60
2016,03,11,16,35,1.10
2016,03,11,16,36,3.30
2016,03,11,16,37,3.30
2016,03,11,16,38,3.50
2016,03,11,16,39,3.70
2016,03,11,16,40,3.90
2016,03,11,16,41,2.50
2016,03,11,16,42,5.60
2016,03,11,16,43,6.30
2016,03,11,16,44,2.10
2016,03,11,16,45,2.00
2016,03,11,16,46,3.50
2016,03,11,16,47,3.70
2016,03,11,16,48,2.90
2016,03,11,16,49,6.10
2016,03,11,16,50,4.60
2016,03,11,16,51,2.30
2016,03,11,16,52,4.80
2016,03,11,16,53,2.20
2016,03,11,16,54,1.20
2016,03,11,16,55,2.50
2016,03,11,16,56,2.50
2016,03,11,16,57,3.80
2016,03,11,16,58,1.50
2016,03,11,16,59,0.40
2016,03,11,17,00,3.30
2016,03,11,17,01,1.70
2016,03,11,17,02,4.40
2016,03,11,17,03,4.20
2016,03,11,17,04,4.50
2016,03,11,17,05,1.70
2016,03,11,17,06,2.90
2016,03,11,17,07,2.10
2016,03,11,17,08,1.20
2016,03,11,17,09,1.10
2016,03,11,17,10,4.00
2016,03,11,17,11,1.60
2016,03,11,17,12,3.40
2016,03,11,17,13,4.70
2016,03,11,17,14,1.70
2016,03,11,17,15,0.80
2016,03,11,17,16,1.00
2016,03,11,17,17,0.40
2016,03,11,17,18,0.80
2016,03,11,17,19,1.10
2016,03,11,17,20,2.70
2016,03,11,17,21,1.90
2016,03,11,17,22,1.10
2016,03,11,17,23,0.40
2016,03,11,17,24,3.50
2016,03,11,17,25,4.10
2016,03,11,17,26,1.70
2016,03,11,17,27,3.00
2016,03,11,17,28,2.10
2016,03,11,17,29,0.20
2016,03,11,17,30,0.70
2016,03,11,17,31,3.30
2016,03,11,17,32,0.40
2016,03,11,17,33,0.60
2016,03,11,17,34,1.40
2016,03,11,17,35,2.00
2016,03,11,17,36,1.80
2016,03,11,17,37,1.20
2016,03,11,17,38,3.90
2016,03,11,17,39,0.90
2016,03,11,17,40,2.00
2016,03,11,17,41,0.40
2016,03,11,17,42,1.70
2016,03,11,17,43,0.40
2016,03,11,17,44,0.20
2016,03,11,17,45,1.70
2016,03,11,17,46,0.90
2016,03,11,17,47,0.00
2016,03,11,17,48,0.20
2016,03,11,17,49,2.60
2016,03,11,17,50,1.20
2016,03,11,17,51,3.90
2016,03,11,17,52,2.60
2016,03,11,17,53,0.90
2016,03,11,17,54,0.40
2016,03,11,17,55,0.20
2016,03,11,17,56,1.80
2016,03,11,17,57,1.40
2016,03,11,17,58,2.50
2016,03,11,17,59,0.00
2016,03,11,18,00,0.00
2016,03,11,18,01,0.00
2016,03,11,18,02,0.00
2016,03,11,18,03,0.00
2016,03,11,18,04,0.00
2016,03,11,18,05,0.00